Location: Forst
(46.9333°N, 15.4333°E)
Time: 13:45:48
(UTC+00:00)

Cosmos 1782 - Visible Passes

Search period start: 12 April 2021 00:00
Search period end: 22 April 2021 00:00
Orbit: 536 x 551 km, 82.5° (Epoch: 11 April)

Date Brightness Start Highest point End Pass type
(mag) Time Alt. Az. Time Alt. Az. Time Alt. Az.
12 Apr 5.5 23:32:25 19° NNE 23:32:25 19° NNE 23:33:35 10° NNE visible
13 Apr 5.4 23:26:06 19° NNE 23:26:06 19° NNE 23:27:19 10° N visible
14 Apr 5.4 23:19:46 20° N 23:19:46 20° N 23:21:03 10° N visible
15 Apr 5.3 23:13:26 20° N 23:13:26 20° N 23:14:47 10° N visible
16 Apr 5.3 23:07:06 21° N 23:07:06 21° N 23:08:31 10° N visible
17 Apr 5.2 23:00:44 22° N 23:00:44 22° N 23:02:15 10° N visible
18 Apr 5.1 22:54:23 23° N 22:54:23 23° N 22:55:59 10° N visible
19 Apr 5.1 22:48:00 24° N 22:48:00 24° N 22:49:42 10° N visible
20 Apr 5.0 22:41:37 25° N 22:41:37 25° N 22:43:26 10° N visible
21 Apr 4.8 22:35:13 27° N 22:35:13 27° N 22:37:09 10° N visible
